JILIN-01 GAOFEN 3G (46459 NORAD) Tracking and Keplerian Element Data

This shows tracking and keplerian element data for the satellite.

Feedback or suggestion? Click here.




ElementValue
Catalog46459
NameJILIN-01 GAOFEN 3G
Epoch Orbit148
Epoch Day268.86618971
Epoch Year2020
RAAN324.3712
Inclination97.5433
Eccentricity0.0012361
Argument of Perigee259.2858
Mean Anonmoly218.7751
Mean Motion15.09465947
Decay Rate-1.63E-06
L11 46459U 20065F 20268.86618971 -.00000163 00000-0 -61815-5 0 9993
L22 46459 97.5433 324.3712 0012361 259.2858 218.7751 15.09465947 1489

Live tracking and technical data element details for JILIN-01 GAOFEN 3G (NORAD 46459). JILIN-01 GAOFEN 3G can be tracked NOW for your location showing map with azimuth and elevation plus other details from your city location.

Track the satellite on the map from your city or location and see movement details for azimuth, elevation, latitude, longitude, range, height, and movement on the map or in text.







IsCatalogInMostPopularTable: catalog: 46459, numindb: 3
Update: records affected: 1



GetName: 46459 JILIN-01 GAOFEN 3G

Hit Count: updated at: Sat, 26 Sep 2020 16:01:48 GMT